Tunica, MS

4:26 PM CST on January 22, 2018 (GMT -0600)
Tunica

Weather History for KUTA - October, 2011

Change the Weather History Date:

Thursday, October 27, 2011

  Actual Average (KAWM) Record (KAWM)
Temperature  
Mean Temperature 58 °F -  
Max Temperature 64 °F 71 °F 87 °F (1963)
Min Temperature 51 °F 48 °F 33 °F (1981)
Degree Days  
Heating Degree Days 8    
Growing Degree Days 8 (Base 50)    
Moisture  
Dew Point 50 °F    
Average Humidity 80    
Maximum Humidity 88    
Minimum Humidity 72    
Precipitation  
Precipitation 0.00 in - - ()
Sea Level Pressure  
Sea Level Pressure 29.96 in    
Wind  
Wind Speed 11 mph (North)    
Max Wind Speed 21 mph    
Max Gust Speed 26 mph    
Visibility 9 miles    
Events Rain    
Averages and records for this station are not official NWS values.
T = Trace of Precipitation, MM = Missing Value Source: NWS Daily Summary

Daily Weather History Graph

Daily Weather History Graph

Search for Another Location

Airport or City:

Trip Planner

Search our weather history database for the weather conditions in past years. The results will help you decide how hot, cold, wet, or windy it might be!

Date:

Astronomy

Oct. 27, 2011 Rise Set
Actual Time 7:17 AM CDT 6:12 PM CDT
Civil Twilight 6:51 AM CDT 6:38 PM CDT
Nautical Twilight 6:21 AM CDT 7:08 PM CDT
Astronomical Twilight 5:52 AM CDT 7:37 PM CDT
Moon 8:15 AM CDT (10/27) 6:47 PM CDT (10/27)
Length of Visible Light 11h 47m
Length of Day
10h 55m
New Moon, 1% of the Moon is Illuminated
Oct 27
New Moon
Nov 2
First Quarter
Nov 10
Full
Nov 18
Last Quarter
Nov 25
New

Hourly Weather History & Observations

Time (CDT) Temp. Dew Point Humidity Pressure Visibility Wind Dir Wind Speed Gust Speed Precip Events Conditions
12:15 AM 62.6 °F 55.4 °F 77% 29.88 in 10.0 mi South 6.9 mph - N/A   Clear
12:35 AM 60.8 °F 53.6 °F 77% 29.88 in 10.0 mi South 6.9 mph - N/A   Clear
12:55 AM 60.8 °F 53.6 °F 77% 29.87 in 10.0 mi South 6.9 mph - N/A   Scattered Clouds
1:15 AM 60.8 °F 55.4 °F 82% 29.87 in 10.0 mi South 6.9 mph - N/A   Mostly Cloudy
1:35 AM 62.6 °F 53.6 °F 72% 29.87 in 10.0 mi South 10.4 mph - N/A   Mostly Cloudy
1:55 AM 62.6 °F 53.6 °F 72% 29.86 in 10.0 mi South 9.2 mph - N/A   Scattered Clouds
2:15 AM 62.6 °F 53.6 °F 72% 29.86 in 10.0 mi South 9.2 mph - N/A   Scattered Clouds
2:35 AM 62.6 °F 53.6 °F 72% 29.87 in 10.0 mi SW 4.6 mph - N/A   Scattered Clouds
2:55 AM 64.4 °F 55.4 °F 73% 29.88 in 10.0 mi West 5.8 mph - N/A   Mostly Cloudy
3:15 AM 64.4 °F 55.4 °F 73% 29.88 in 10.0 mi Calm Calm - N/A   Overcast
3:35 AM 64.4 °F 55.4 °F 73% 29.88 in 10.0 mi North 8.1 mph - N/A   Overcast
3:55 AM 60.8 °F 57.2 °F 88% 29.88 in 10.0 mi North 10.4 mph - N/A   Mostly Cloudy
4:15 AM 60.8 °F 57.2 °F 88% 29.88 in 7.0 mi North 9.2 mph - N/A   Mostly Cloudy
4:35 AM 59.0 °F 55.4 °F 88% 29.89 in 7.0 mi North 11.5 mph - N/A   Overcast
4:55 AM 59.0 °F 55.4 °F 88% 29.89 in 7.0 mi North 8.1 mph - N/A   Overcast
5:15 AM 57.2 °F 53.6 °F 88% 29.90 in 5.0 mi North 8.1 mph - N/A   Overcast
5:35 AM 57.2 °F 53.6 °F 88% 29.90 in 5.0 mi North 9.2 mph - N/A   Overcast
5:55 AM 55.4 °F 51.8 °F 88% 29.91 in 10.0 mi North 10.4 mph - N/A   Overcast
6:15 AM 55.4 °F 51.8 °F 88% 29.92 in 10.0 mi North 11.5 mph - N/A   Overcast
6:35 AM 55.4 °F 51.8 °F 88% 29.92 in 10.0 mi North 12.7 mph - N/A   Overcast
6:55 AM 55.4 °F 51.8 °F 88% 29.92 in 10.0 mi North 13.8 mph 18.4 mph N/A   Overcast
7:15 AM 55.4 °F 51.8 °F 88% 29.93 in 10.0 mi North 13.8 mph - N/A   Overcast
7:35 AM 55.4 °F 50.0 °F 82% 29.95 in 10.0 mi North 16.1 mph 20.7 mph N/A   Overcast
7:55 AM 53.6 °F 50.0 °F 88% 29.95 in 10.0 mi North 17.3 mph 21.9 mph N/A   Overcast
8:15 AM 53.6 °F 50.0 °F 88% 29.97 in 10.0 mi North 18.4 mph 24.2 mph N/A   Overcast
8:35 AM 53.6 °F 50.0 °F 88% 29.98 in 10.0 mi North 19.6 mph 26.5 mph N/A   Overcast
9:15 AM 53.6 °F 46.4 °F 77% 29.98 in 10.0 mi North 16.1 mph 25.3 mph N/A   Overcast
9:35 AM 53.6 °F 46.4 °F 77% 29.98 in 10.0 mi North 20.7 mph - N/A   Overcast
9:55 AM 53.6 °F 48.2 °F 82% 30.00 in 10.0 mi NNE 15.0 mph 18.4 mph N/A   Overcast
10:15 AM 53.6 °F 48.2 °F 82% 30.00 in 10.0 mi North 20.7 mph - N/A   Overcast
10:35 AM 53.6 °F 48.2 °F 82% 30.01 in 10.0 mi North 16.1 mph 23.0 mph N/A   Overcast
11:15 AM 51.8 °F 46.4 °F 82% 30.04 in 5.0 mi North 19.6 mph 24.2 mph N/A   Light Drizzle
11:35 AM 51.8 °F 46.4 °F 82% 30.04 in 5.0 mi North 17.3 mph 24.2 mph N/A   Overcast
12:15 PM 51.8 °F 46.4 °F 82% 30.03 in 10.0 mi North 16.1 mph 20.7 mph N/A Rain Light Rain
12:35 PM 51.8 °F 46.4 °F 82% 30.03 in 5.0 mi NNE 12.7 mph 20.7 mph N/A Rain Rain
12:55 PM 51.8 °F 46.4 °F 82% 30.02 in 7.0 mi North 17.3 mph 24.2 mph N/A   Overcast
1:15 PM 51.8 °F 46.4 °F 82% 30.01 in 7.0 mi North 15.0 mph - N/A   Overcast
1:35 PM 51.8 °F 46.4 °F 82% 30.01 in 7.0 mi North 16.1 mph 20.7 mph N/A   Overcast
1:55 PM 53.6 °F 46.4 °F 77% 30.01 in 10.0 mi North 15.0 mph 21.9 mph N/A   Overcast
2:15 PM 53.6 °F 46.4 °F 77% 30.01 in 10.0 mi North 15.0 mph 19.6 mph N/A   Overcast
2:35 PM 53.6 °F 46.4 °F 77% 30.02 in 10.0 mi North 15.0 mph - N/A   Overcast
2:55 PM 53.6 °F 46.4 °F 77% 30.01 in 10.0 mi NNE 13.8 mph - N/A   Overcast
3:15 PM 53.6 °F 46.4 °F 77% 30.01 in 10.0 mi NNE 15.0 mph - N/A   Overcast
3:35 PM 53.6 °F 46.4 °F 77% 30.00 in 10.0 mi NNE 15.0 mph - N/A   Overcast
3:55 PM 53.6 °F 46.4 °F 77% 29.98 in 10.0 mi NNE 17.3 mph - N/A   Overcast
4:15 PM 53.6 °F 46.4 °F 77% 30.01 in 10.0 mi NNE 13.8 mph - N/A   Overcast
4:35 PM 53.6 °F 46.4 °F 77% 30.02 in 10.0 mi North 12.7 mph - N/A   Overcast
4:55 PM 53.6 °F 46.4 °F 77% 30.03 in 10.0 mi North 12.7 mph 17.3 mph N/A   Overcast
5:15 PM 53.6 °F 46.4 °F 77% 30.04 in 10.0 mi North 13.8 mph - N/A   Mostly Cloudy
5:35 PM 53.6 °F 46.4 °F 77% 30.04 in 10.0 mi NNE 12.7 mph - N/A   Mostly Cloudy
5:55 PM 53.6 °F 46.4 °F 77% 30.04 in 10.0 mi NNE 9.2 mph 16.1 mph N/A   Mostly Cloudy
6:15 PM 53.6 °F 44.6 °F 72% 30.05 in 10.0 mi North 11.5 mph - N/A   Overcast
6:35 PM 53.6 °F 46.4 °F 77% 30.05 in 10.0 mi NNE 9.2 mph - N/A   Overcast
6:55 PM 53.6 °F 46.4 °F 77% 30.04 in 10.0 mi NNE 11.5 mph - N/A   Mostly Cloudy
7:15 PM 51.8 °F 46.4 °F 82% 30.04 in 7.0 mi NNE 9.2 mph - N/A Rain Rain
7:35 PM 51.8 °F 46.4 °F 82% 30.05 in 10.0 mi NNE 8.1 mph - N/A Rain Rain
7:55 PM 51.8 °F 46.4 °F 82% 30.05 in 10.0 mi NE 8.1 mph - N/A   Drizzle
8:15 PM 51.8 °F 46.4 °F 82% 30.05 in 10.0 mi NNE 8.1 mph - N/A   Overcast
8:35 PM 51.8 °F 46.4 °F 82% 30.06 in 10.0 mi North 9.2 mph - N/A Rain Light Rain
8:55 PM 51.8 °F 46.4 °F 82% 30.07 in 10.0 mi North 10.4 mph - N/A Rain Rain
9:15 PM 50.0 °F 46.4 °F 87% 30.07 in 10.0 mi NNE 12.7 mph - N/A Rain Light Rain
9:35 PM 50.0 °F 46.4 °F 87% 30.08 in 10.0 mi North 10.4 mph - N/A Rain Light Rain
9:55 PM 50.0 °F 46.4 °F 87% 30.06 in 7.0 mi NNE 13.8 mph - N/A Rain Rain
10:15 PM 50.0 °F 46.4 °F 87% 30.06 in 10.0 mi NNE 11.5 mph - N/A   Light Drizzle
10:35 PM 50.0 °F 46.4 °F 87% 30.05 in 10.0 mi NNE 15.0 mph - N/A   Mostly Cloudy
10:55 PM 50.0 °F 46.4 °F 87% 30.04 in 10.0 mi NNE 13.8 mph - N/A   Mostly Cloudy
11:15 PM 50.0 °F 46.4 °F 87% 30.05 in 10.0 mi NNE 16.1 mph - N/A   Mostly Cloudy
11:55 PM 50.0 °F 46.4 °F 87% 30.06 in 10.0 mi NNE 9.2 mph - N/A Rain Rain